Location: Newark
(45.4422°N, 16.2769°E)
Time: 05:58:57
(UTC+00:00)

Explorer 7 - Pass Details

Date: 24 January 2021
Orbit: 484 x 677 km, 50.3° (Epoch: 05 March)

Event Time Altitude Azimuth Distance (km) Brightness Sun altitude
Exits shadow 04:34:32 54° 278° (W) 626 6.7 -19.1°
Maximum altitude 04:35:16 71° 338° (NNW) 550 6.6 -19.0°
Drops below altitude 10° 04:39:19 10° 63° (ENE) 1,797 10.2 -18.3°
Sets 04:41:38 0° 66° (ENE) 2,725 11.3 -17.9°
